Wind_Speed
1 3 8 8 10 12 14 9 9 7 5 8 3 2 12 14 11 11 12 12 7 5 5 8 10 10 10 7 5 6 3 1 5 7 7 7 4 4 3 7 11 13 9 8
5 8 10 12 14 15 16 13 10 7 5 6 5 5 2 10 8 12 10 7 9 7 4 5 7 9 13 9 12 10 8 4 4 5 7 7 7 6 2 7 12 12 11 12
9 13 12 13 16 17 14 12 6 5 5 6 6 5 2 7 4 3 4 6 5 1 4 5 7 8 13 10 13 8 10 6 4 6 7 6 7 7 5 7 12 12 13 15
12 14 13 12 15 14 14 10 7 6 3 3 5 3 4 4 6 6 1 6 6 5 3 4 9 13 13 14 13 13 12 10 3 3 5 6 6 6 7 8 9 10 11 14
14 14 13 12 11 9 11 8 9 9 8 8 7 3 6 3 5 6 6 7 9 8 4 7 9 16 17 18 13 11 10 7 2 3 1 2 6 9 9 9 10 11 10 10
14 14 11 10 9 9 9 9 11 12 10 10 11 9 8 6 7 6 4 5 5 7 4 6 16 21 20 16 15 13 13 9 5 4 4 3 5 7 10 10 9 9 10 13
14 12 6 8 10 11 10 11 11 12 12 14 16 16 12 12 9 7 6 4 7 8 8 10 14 19 21 20 15 13 17 14 12 8 5 4 6 6 8 10 11 11 12 14
11 8 6 9 8 11 11 12 12 15 16 16 19 19 16 17 14 12 9 11 12 8 8 10 13 24 26 16 12 17 21 22 18 11 7 4 6 7 7 9 11 12 14 17
12 10 9 10 12 9 10 10 9 10 11 14 19 22 23 21 19 16 12 16 17 16 18 18 16 20 23 18 24 19 22 12 14 6 8 8 7 6 7 10 10 13 15 18
15 12 13 12 14 14 11 12 13 15 20 19 14 19 24 25 28 24 24 26 27 28 27 17 17 20 17 26 25 18 17 22 20 7 8 10 10 9 6 10 12 12 15 14
13 16 12 14 15 15 16 21 24 26 28 28 25 22 23 25 29 30 30 34 33 32 29 24 22 22 25 26 23 27 26 23 19 14 9 12 14 10 7 11 12 11 16 13
14 12 13 15 18 19 19 23 25 29 29 30 32 34 30 29 33 33 33 34 34 33 31 31 31 30 28 26 22 25 22 21 18 18 15 13 11 9 12 13 10 10 13 14
8 11 14 18 20 22 28 32 29 30 34 36 37 36 36 35 33 35 36 36 36 36 36 37 37 37 35 29 21 22 17 17 22 21 18 15 13 12 11 9 11 8 6 15
18 22 26 27 29 30 33 32 32 34 36 39 38 40 39 42 40 39 39 39 39 38 39 39 41 41 39 38 30 30 32 32 29 26 23 18 14 11 8 8 10 10 5 6
29 29 30 31 32 35 36 35 34 36 39 39 38 39 39 42 43 44 45 46 45 46 44 43 43 43 42 41 38 37 38 33 34 29 27 16 19 14 13 12 11 11 10 9
32 35 34 34 33 33 35 34 34 35 37 38 39 38 37 38 41 45 48 50 51 51 50 48 46 46 47 45 43 41 40 40 39 32 26 24 17 15 16 16 13 13 16 14
31 30 31 32 32 36 36 34 35 36 36 37 37 39 39 39 40 42 44 46 47 49 49 45 44 42 41 42 41 37 35 35 33 34 32 30 21 19 18 21 18 19 18 18
30 31 33 34 35 38 39 39 38 38 38 37 37 37 38 39 40 41 43 44 45 45 46 44 41 39 40 40 42 45 42 38 33 33 38 39 32 23 23 23 25 24 22 21
30 31 33 35 36 40 40 40 41 40 40 39 36 36 38 41 43 45 45 47 47 48 47 47 45 42 42 43 44 44 44 42 40 34 41 46 45 40 34 30 28 29 30 28
27 30 33 35 38 40 40 41 42 43 44 43 44 44 43 43 42 41 45 48 51 53 52 51 51 50 47 45 46 45 45 46 45 43 45 46 48 48 41 34 34 34 34 33
29 32 34 37 39 42 42 44 45 46 46 45 42 41 40 38 38 38 40 42 46 50 53 54 55 56 56 57 55 55 52 49 52 50 47 51 49 54 56 47 37 40 40 38
30 33 36 38 40 43 42 41 42 43 41 41 40 40 40 39 36 34 36 36 40 43 47 50 52 53 53 54 54 53 55 53 51 51 50 50 49 52 58 58 50 48 47 45
33 35 37 39 39 40 39 39 40 40 39 37 36 34 32 29 31 34 35 37 39 42 43 43 45 48 50 52 53 51 50 50 54 51 49 54 54 52 60 59 50 51 53 51
35 36 38 38 38 37 35 38 38 36 32 28 27 28 31 34 38 40 41 40 41 43 45 48 47 46 46 47 47 45 48 50 50 47 47 52 56 57 54 54 49 52 54 55
35 37 37 37 36 34 34 35 35 29 27 28 32 36 41 42 38 41 43 43 44 43 45 47 49 51 49 47 46 46 41 40 40 42 41 44 53 59 57 52 49 54 54 56
34 35 36 34 34 32 31 31 29 28 30 34 39 42 42 42 42 43 45 45 45 44 44 44 44 47 46 45 43 44 44 41 41 42 41 40 48 55 56 54 50 53 55 55
Wind_Direction
243 224 238 279 304 317 319 316 256 254 305 339 328 332 132 132 109 112 90 49 8 325 17 21 26 6 9 349 359 343 334 304 271 283 285 274 266 262 237 208 189 209 208 194
242 257 280 294 305 310 308 294 278 295 310 306 330 314 48 144 134 99 95 60 359 298 313 349 6 15 351 352 50 352 331 320 313 308 294 266 265 248 183 174 197 205 214 227
256 271 287 304 306 303 298 282 284 274 285 317 309 300 70 127 144 73 109 69 37 328 315 322 331 338 329 329 344 27 331 327 321 330 323 259 244 253 233 219 196 198 212 227
265 277 286 293 287 290 263 266 241 234 237 270 301 35 122 198 264 249 225 30 62 75 288 343 353 351 351 346 350 343 334 346 326 320 322 303 265 251 245 241 239 224 233 224
256 268 269 274 283 265 260 256 237 241 244 264 297 275 223 204 221 286 260 54 46 32 14 8 345 344 345 348 331 331 316 311 318 245 208 291 285 269 253 243 240 242 252 229
256 253 245 253 263 254 256 252 237 245 245 262 283 285 282 264 269 290 180 11 26 5 331 330 325 323 328 332 322 314 297 283 266 193 210 254 260 267 264 256 255 248 257 249
236 239 270 264 258 256 251 252 250 242 232 253 271 282 286 302 314 320 225 286 323 334 346 313 308 312 318 303 291 294 290 287 270 240 199 218 239 252 262 260 256 251 260 265
227 245 234 259 269 275 267 276 277 267 261 252 264 280 288 289 303 314 284 275 297 282 322 303 319 328 340 328 5 284 293 305 273 266 259 215 225 238 258 255 250 248 276 269
212 224 244 257 256 258 285 294 297 293 296 287 269 271 284 288 288 291 277 276 283 297 291 312 330 345 335 353 347 329 285 273 241 273 284 260 240 229 243 260 255 255 267 275
231 222 233 245 253 273 285 282 286 289 293 291 282 283 291 294 296 295 289 295 294 299 305 304 342 333 326 343 330 330 297 274 292 279 270 267 241 232 234 265 264 272 276 276
214 224 237 266 279 304 307 303 297 300 298 292 289 286 285 285 283 288 293 296 300 301 303 307 311 313 319 320 321 324 309 262 259 260 256 263 250 231 240 259 258 266 276 248
213 234 237 262 286 293 290 294 291 290 289 291 292 292 288 280 277 278 283 287 288 297 300 297 299 304 307 313 298 305 313 244 242 262 248 247 256 239 237 246 256 274 276 210
255 262 272 279 283 293 291 292 293 291 288 288 288 289 288 285 281 280 281 283 286 288 293 295 296 299 305 311 304 313 305 261 253 244 242 243 235 233 230 244 257 266 289 217
285 283 282 281 282 287 291 290 294 292 290 289 289 288 284 287 288 286 283 281 282 285 288 292 294 298 301 298 295 293 298 303 285 252 236 230 257 252 250 262 267 267 253 233
274 278 279 279 282 287 288 287 287 286 284 284 285 283 282 280 281 282 283 283 284 286 287 288 287 287 289 289 286 280 284 284 291 289 283 276 222 252 264 278 284 279 272 246
271 275 279 282 285 287 288 290 288 285 285 288 287 284 280 276 274 274 276 276 278 279 280 281 282 283 284 284 285 284 281 284 284 275 267 271 244 234 254 261 277 269 276 263
276 281 283 286 289 287 287 288 287 287 286 285 283 282 280 276 272 270 269 270 272 273 274 275 275 277 278 278 278 276 273 271 268 264 253 250 242 250 249 254 256 266 264 269
282 286 289 291 291 290 292 294 294 293 291 288 285 282 278 276 274 272 270 269 268 269 268 267 267 266 266 267 266 267 264 261 255 258 255 249 245 241 249 250 259 260 268 252
280 282 283 284 287 290 292 292 293 293 291 288 285 280 277 275 273 272 269 269 268 266 265 265 266 264 260 259 259 261 260 261 265 257 252 247 245 247 243 249 245 255 260 260
277 281 284 288 289 291 295 295 295 293 291 294 292 292 291 288 286 281 275 270 268 267 266 264 261 261 260 262 266 265 264 263 259 256 249 249 247 245 242 241 248 248 251 256
285 288 290 291 294 293 295 296 298 296 298 298 299 297 296 292 288 284 283 280 278 275 273 272 273 271 266 260 260 262 262 258 258 257 253 250 249 242 242 247 252 248 246 248
290 291 291 291 292 294 296 296 294 294 296 296 296 294 293 294 294 291 289 286 280 275 273 272 271 269 269 268 267 264 260 256 260 259 253 253 252 243 245 243 255 246 241 242
289 289 291 293 295 296 298 297 296 298 298 297 297 296 295 293 291 291 289 287 286 283 280 276 272 271 270 268 267 266 264 263 258 264 256 250 252 247 240 247 247 239 240 242
291 295 297 299 300 299 299 297 300 299 297 296 298 298 293 290 289 293 293 289 284 279 276 273 271 272 274 272 270 268 265 263 262 260 254 250 250 248 243 240 240 234 238 241
296 299 301 301 301 302 301 300 300 297 297 301 307 309 307 303 298 303 303 300 294 288 281 277 272 268 269 270 269 266 262 259 258 258 254 248 246 245 244 241 236 234 235 240
300 300 302 305 303 303 300 298 294 294 298 303 305 305 303 301 298 298 305 302 296 294 292 288 275 265 261 264 265 265 262 263 261 257 258 249 243 243 240 238 233 234 237 238
Height
5903 5904 5905 5905 5906 5906 5907 5907 5906 5904 5904 5905 5905 5904 5907 5907 5906 5905 5904 5904 5902 5900 5898 5896 5894 5891 5889 5887 5885 5887 5884 5884 5884 5884 5884 5885 5886 5885 5885 5886 5888 5891 5893 5895
5904 5904 5904 5905 5906 5906 5905 5905 5905 5904 5903 5904 5904 5904 5905 5906 5907 5906 5905 5904 5902 5900 5899 5897 5894 5892 5887 5887 5884 5888 5887 5884 5883 5885 5885 5885 5886 5885 5884 5886 5887 5889 5891 5893
5903 5903 5904 5904 5904 5904 5903 5903 5904 5902 5901 5902 5903 5903 5903 5906 5907 5905 5905 5904 5902 5900 5899 5897 5895 5892 5887 5871 5880 5883 5887 5884 5884 5886 5887 5885 5884 5884 5885 5886 5887 5888 5889 5891
5902 5901 5902 5903 5902 5902 5902 5902 5901 5901 5902 5902 5902 5904 5904 5904 5904 5904 5906 5904 5901 5900 5898 5896 5894 5892 5891 5890 5889 5888 5887 5885 5883 5884 5886 5887 5885 5883 5883 5884 5885 5886 5886 5888
5901 5900 5900 5900 5901 5901 5901 5901 5900 5900 5901 5901 5901 5903 5902 5903 5903 5904 5906 5904 5901 5899 5897 5896 5894 5892 5891 5890 5887 5885 5885 5883 5882 5883 5884 5885 5885 5884 5883 5883 5884 5885 5884 5885
5898 5898 5898 5899 5900 5899 5899 5899 5899 5899 5900 5900 5900 5902 5901 5902 5901 5902 5903 5902 5901 5899 5898 5897 5895 5893 5891 5888 5885 5885 5882 5883 5882 5878 5880 5882 5883 5884 5884 5881 5880 5881 5882 5882
5895 5896 5898 5899 5898 5898 5897 5897 5897 5899 5899 5900 5898 5899 5900 5899 5898 5897 5900 5900 5900 5898 5896 5895 5893 5890 5888 5885 5880 5882 5880 5881 5882 5877 5874 5877 5879 5880 5880 5880 5878 5877 5878 5878
5894 5896 5896 5896 5897 5897 5896 5897 5897 5896 5897 5897 5896 5896 5897 5895 5895 5895 5895 5895 5895 5895 5894 5892 5890 5886 5886 5885 5878 5879 5873 5877 5883 5878 5874 5872 5874 5876 5877 5876 5875 5873 5873 5873
5891 5894 5894 5895 5895 5896 5895 5895 5895 5894 5894 5893 5894 5894 5892 5892 5892 5892 5892 5892 5891 5889 5889 5891 5891 5888 5888 5884 5880 5878 5873 5877 5869 5868 5872 5869 5870 5871 5872 5872 5871 5870 5868 5866
5890 5891 5892 5893 5892 5893 5893 5893 5894 5892 5889 5888 5890 5889 5888 5888 5886 5886 5887 5887 5886 5884 5883 5885 5887 5884 5883 5880 5875 5877 5872 5870 5864 5863 5867 5866 5868 5866 5866 5867 5866 5864 5863 5862
5887 5889 5890 5890 5889 5889 5889 5889 5889 5888 5886 5884 5884 5886 5884 5883 5882 5881 5882 5881 5880 5878 5878 5878 5879 5882 5882 5880 5877 5871 5869 5866 5867 5864 5861 5864 5866 5863 5862 5863 5862 5859 5858 5857
5886 5887 5887 5887 5886 5887 5886 5884 5884 5882 5881 5878 5877 5877 5877 5877 5875 5876 5877 5875 5875 5875 5874 5874 5874 5875 5875 5875 5872 5870 5866 5863 5862 5865 5864 5862 5862 5859 5859 5860 5858 5856 5854 5853
5883 5884 5885 5883 5883 5881 5880 5878 5877 5875 5874 5873 5871 5872 5867 5867 5868 5868 5868 5867 5868 5868 5868 5868 5866 5866 5867 5867 5865 5864 5863 5863 5862 5862 5863 5861 5858 5859 5857 5855 5855 5855 5853 5853
5876 5877 5877 5878 5876 5875 5873 5871 5870 5868 5865 5863 5864 5861 5860 5857 5858 5858 5858 5858 5859 5859 5859 5859 5857 5856 5856 5857 5859 5857 5855 5857 5856 5858 5858 5855 5858 5855 5853 5852 5851 5852 5852 5852
5870 5870 5870 5870 5869 5867 5866 5865 5864 5861 5858 5856 5855 5853 5852 5851 5850 5848 5847 5847 5847 5848 5848 5849 5849 5848 5847 5847 5849 5849 5847 5848 5847 5849 5849 5848 5848 5851 5850 5851 5849 5848 5850 5851
5863 5862 5862 5862 5861 5859 5857 5857 5855 5852 5849 5847 5844 5843 5842 5841 5840 5839 5837 5836 5835 5836 5837 5838 5838 5837 5837 5838 5839 5840 5839 5838 5839 5841 5844 5843 5845 5843 5844 5845 5846 5847 5845 5847
5855 5856 5855 5854 5853 5850 5849 5848 5846 5844 5841 5838 5835 5832 5831 5830 5828 5827 5826 5825 5824 5823 5823 5825 5826 5826 5825 5826 5828 5830 5831 5829 5831 5832 5835 5837 5839 5841 5840 5839 5840 5841 5842 5842
5848 5848 5846 5844 5842 5840 5839 5836 5834 5832 5830 5827 5824 5821 5819 5817 5816 5814 5813 5812 5812 5811 5811 5810 5811 5812 5812 5813 5815 5815 5816 5819 5820 5823 5824 5828 5830 5831 5833 5834 5834 5835 5836 5837
5842 5840 5838 5836 5834 5831 5829 5827 5824 5821 5819 5815 5813 5810 5808 5806 5805 5803 5800 5797 5796 5796 5796 5795 5795 5798 5797 5797 5798 5801 5803 5805 5808 5812 5813 5815 5820 5820 5823 5825 5826 5827 5829 5832
5835 5833 5832 5829 5825 5821 5820 5816 5812 5809 5806 5804 5800 5797 5794 5792 5791 5790 5787 5785 5783 5781 5780 5780 5781 5781 5782 5784 5785 5787 5789 5789 5793 5795 5799 5802 5805 5810 5811 5814 5816 5817 5819 5822
5828 5826 5822 5818 5815 5812 5808 5805 5801 5797 5797 5790 5788 5786 5783 5781 5778 5777 5773 5771 5768 5766 5764 5763 5764 5765 5768 5769 5770 5772 5772 5776 5776 5781 5785 5787 5790 5795 5799 5802 5805 5807 5810 5811
5820 5817 5814 5810 5806 5802 5799 5796 5792 5787 5784 5781 5777 5774 5770 5767 5766 5764 5761 5759 5756 5754 5751 5748 5747 5748 5750 5750 5751 5755 5757 5760 5761 5763 5769 5771 5775 5779 5783 5788 5793 5795 5798 5799
5812 5810 5806 5803 5799 5793 5789 5784 5780 5776 5773 5770 5767 5763 5760 5759 5756 5753 5751 5748 5745 5742 5739 5737 5734 5732 5733 5734 5736 5737 5741 5742 5746 5749 5750 5755 5758 5762 5767 5773 5777 5780 5782 5787
5802 5799 5796 5792 5788 5783 5779 5773 5770 5767 5763 5760 5758 5755 5753 5749 5745 5742 5738 5735 5731 5727 5724 5721 5719 5717 5717 5718 5720 5721 5724 5726 5728 5731 5735 5736 5740 5744 5750 5756 5761 5765 5768 5774
5794 5790 5786 5782 5777 5773 5768 5764 5760 5757 5754 5751 5747 5744 5740 5736 5733 5729 5723 5719 5713 5710 5707 5704 5702 5701 5701 5702 5703 5705 5708 5710 5712 5714 5717 5720 5722 5726 5732 5740 5747 5751 5757 5761
5786 5781 5777 5773 5769 5765 5760 5755 5750 5748 5745 5742 5737 5734 5729 5723 5718 5714 5709 5704 5698 5694 5689 5685 5683 5682 5684 5685 5687 5689 5692 5695 5697 5701 5702 5704 5707 5710 5717 5725 5734 5739 5745 5753